Regional Weather Roundup
Issued by NWS

Home | Current Version | Previous Version | Text Only | Print | Product List | Glossary Off
Versions: 1 2 3 4 5 6 7 8 9 10 11 12 13 14 15 16 17 18 19 20 21 22 23 24 25 26 27 28 29 30 31 32 33 34 35 36 37 38 39 40 41 42 43 44 45 46 47 48 49 50

000
ASUS43 KBIS 012310
RWRND

NORTH DAKOTA REGIONAL WEATHER ROUNDUP
NATIONAL WEATHER SERVICE BISMARCK ND
600 PM CDT TUE SEP 01 2015

NOTE: "FAIR" INDICATES FEW OR NO CLOUDS BELOW 12,000 FEET WITH NO
SIGNIFICANT WEATHER AND/OR OBSTRUCTIONS TO VISIBILITY.


NDZ001>003-009>011-017-020000-
NORTHWEST NORTH DAKOTA

CITY           SKY/WX    TMP DP  RH WIND       PRES   REMARKS
WILLISTON      SUNNY     93  44  18 S10       29.72F
MINOT          SUNNY     88  51  28 S15       29.75S
$$

NDZ018>021-031>035-040>046-020000-
SOUTHWEST NORTH DAKOTA

CITY           SKY/WX    TMP DP  RH WIND       PRES   REMARKS
BISMARCK       SUNNY     88  63  43 SE10      29.77F
DICKINSON      SUNNY     88  54  31 SE12      29.78S
GARRISON         N/A     87  58  37 S10       29.77F
HETTINGER ARPT SUNNY     88  54  31 SW6       29.81S
$$

NDZ004>008-012>016-024-026-027-054-020000-
NORTHEAST NORTH DAKOTA

CITY           SKY/WX    TMP DP  RH WIND       PRES   REMARKS
GRAND FORKS    MOSUNNY   86  53  32 S9        29.81S
GRND FRKS AFB  SUNNY     86  53  31 S8        29.82S
DEVILS LAKE    SUNNY     84  52  32 SE14      29.80S
$$

NDZ022-023-025-028>030-036>039-047>053-020000-
SOUTHEAST NORTH DAKOTA

CITY           SKY/WX    TMP DP  RH WIND       PRES   REMARKS
FARGO          MOSUNNY   88  50  27 SE10      29.81S
JAMESTOWN      SUNNY     86  63  45 SE9       29.81S
$$




USA.gov is the U.S. government's official web portal to all federal, state and local government web resources and services.